Stations météo

réclame
Mon MeteoGroup
AWG, Pays-Bas (6208): Température de l'air & dewpoint: 14.11.2017 01:00:00 - 20.11.2017 01:00:00 (CET)AWG, Pays-Bas (6208): Vitesse du vent & gusts: 14.11.2017 01:00:00 - 20.11.2017 01:00:00 (CET)AWG, Pays-Bas (6208): Direction du vent: 14.11.2017 01:00:00 - 20.11.2017 01:00:00 (CET)AWG, Pays-Bas (6208): reduced air pressure: 14.11.2017 01:00:00 - 20.11.2017 01:00:00 (CET)AWG, Pays-Bas (6208): visibility: 14.11.2017 01:00:00 - 20.11.2017 01:00:00 (CET)
Date & Time tt [°C] td [°C] ff [km/h] ff [knt] fx [km/h] fx [knt] dd ppp [hPa] vv [km]
20.11.2017 01:00:00 9,0 2,0 39 21 - - WNW 1017,2 10
20.11.2017 00:00:00 8,8 3,7 41 22 58 31 WNW 1017,3 10
19.11.2017 23:00:00 9,0 2,7 42 23 54 29 NW 1016,9 10
19.11.2017 22:00:00 9,3 1,0 44 24 - - NW 1017,0 10
19.11.2017 21:00:00 9,3 0,1 54 29 58 31 NW 1016,8 10
19.11.2017 20:00:00 9,4 1,7 54 29 58 31 NW 1015,8 10
19.11.2017 19:00:00 9,4 0,9 55 30 - - WNW 1015,1 10
19.11.2017 18:00:00 9,1 2,5 72 39 76 41 NW 1015,1 10
19.11.2017 17:00:00 8,7 2,6 67 36 72 39 NW 1013,7 10
19.11.2017 16:00:00 9,0 2,4 67 36 - - NW 1013,9 10
19.11.2017 15:00:00 9,6 1,5 67 36 68 37 NW 1013,0 10
19.11.2017 14:00:00 9,6 1,9 65 35 68 37 NW 1013,1 10
19.11.2017 13:00:00 9,7 1,6 65 35 - - NW 1012,5 10
19.11.2017 12:00:00 9,7 2,2 65 35 76 41 NW 1012,2 10
19.11.2017 11:00:00 9,7 2,1 67 36 79 43 NW 1011,8 10
19.11.2017 10:00:00 9,4 3,9 63 34 - - NW 1010,6 10
19.11.2017 09:00:00 8,5 3,4 74 40 79 43 NW 1010,4 10
19.11.2017 08:00:00 8,5 3,7 81 44 90 49 WNW 1010,2 7
19.11.2017 07:00:00 8,0 2,9 80 43 - - NW 1009,7 10
19.11.2017 06:00:00 9,0 2,6 72 39 79 43 WNW 1008,9 10
19.11.2017 05:00:00 8,0 2,0 63 34 79 43 NW 1009,3 10
19.11.2017 04:00:00 8,1 2,3 70 38 - - WNW 1009,1 10
19.11.2017 03:00:00 9,0 3,0 61 33 83 45 WNW 1008,9 10
19.11.2017 02:00:00 8,3 2,3 54 29 68 37 WNW 1009,7 10
19.11.2017 01:00:00 7,9 3,4 52 28 - - WNW 1010,1 10
19.11.2017 00:00:00 8,8 0,5 57 31 61 33 WNW 1011,0 10
18.11.2017 23:00:00 8,9 1,0 55 30 61 33 WNW 1011,4 10
18.11.2017 22:00:00 8,6 1,6 46 25 - - WNW 1011,7 10
18.11.2017 21:00:00 8,1 0,4 50 27 65 35 WNW 1012,0 10
18.11.2017 20:00:00 7,9 0,6 48 26 61 33 W 1011,8 10
18.11.2017 19:00:00 8,7 -1,2 39 21 - - W 1012,1 10
18.11.2017 18:00:00 8,7 -0,8 54 29 61 33 WNW 1012,2 10
18.11.2017 17:00:00 8,3 0,9 59 32 65 35 NW 1012,6 10
18.11.2017 16:00:00 8,9 -1,8 59 32 - - WNW 1012,1 10
18.11.2017 15:00:00 8,9 -1,5 54 29 61 33 WNW 1011,8 10
18.11.2017 14:00:00 8,3 2,9 44 24 61 33 WNW 1012,7 10
18.11.2017 13:00:00 6,6 2,2 58 31 - - WNW 1011,8 12
18.11.2017 12:00:00 - - - - - - - - -
18.11.2017 11:00:00 - - - - - - - - -
18.11.2017 10:00:00 9,2 5,3 55 30 - - W 1012,7 10
18.11.2017 09:00:00 9,4 5,6 44 24 61 33 W 1013,3 10
18.11.2017 08:00:00 8,8 5,5 41 22 61 33 W 1014,1 10
18.11.2017 07:00:00 9,2 5,0 42 23 - - W 1014,8 10
18.11.2017 06:00:00 8,9 4,9 37 20 40 21 WSW 1015,8 10
18.11.2017 05:00:00 9,0 4,7 39 21 40 21 WSW 1016,8 10
18.11.2017 04:00:00 8,9 4,2 39 21 - - WSW 1017,8 10
18.11.2017 03:00:00 9,0 4,2 35 19 40 21 WSW 1018,9 10
18.11.2017 02:00:00 9,1 3,8 37 20 36 19 W 1019,5 10
18.11.2017 01:00:00 9,3 2,5 39 21 - - WSW 1020,3 10
18.11.2017 00:00:00 9,3 3,4 29 16 36 19 WSW 1021,3 10
17.11.2017 23:00:00 9,2 3,4 29 16 36 19 WSW 1021,8 10
17.11.2017 22:00:00 9,4 3,8 31 17 - - W 1022,4 10
17.11.2017 21:00:00 9,2 4,3 31 17 32 18 WSW 1022,7 10
17.11.2017 20:00:00 9,3 4,4 31 17 32 18 W 1023,1 10
17.11.2017 19:00:00 8,9 4,2 22 12 - - WSW 1023,8 10
17.11.2017 18:00:00 9,0 3,8 29 16 29 16 W 1024,2 10
17.11.2017 17:00:00 9,3 4,3 28 15 32 18 W 1024,6 10
17.11.2017 16:00:00 9,2 4,7 22 12 - - WSW 1024,7 10
17.11.2017 15:00:00 8,7 5,1 26 14 29 16 WSW 1024,9 10
17.11.2017 14:00:00 9,6 4,1 29 16 29 16 W 1025,5 10
17.11.2017 13:00:00 9,5 2,8 26 14 - - W 1025,8 10
17.11.2017 12:00:00 9,4 2,7 26 14 29 16 W 1026,2 10
17.11.2017 11:00:00 9,7 3,3 21 11 25 14 W 1026,5 10
17.11.2017 10:00:00 9,6 1,7 24 13 - - WNW 1026,2 10
17.11.2017 09:00:00 9,7 1,7 18 10 22 12 W 1026,1 10
17.11.2017 08:00:00 9,3 2,5 28 15 29 16 W 1026,0 10
17.11.2017 07:00:00 9,0 4,0 15 8 - - W 1025,8 10
17.11.2017 06:00:00 9,8 0,3 28 15 32 18 WNW 1025,3 10
17.11.2017 05:00:00 9,7 1,4 13 7 32 18 NW 1024,8 10
17.11.2017 04:00:00 8,6 4,3 15 8 - - NW 1025,1 8
17.11.2017 03:00:00 9,7 3,4 26 14 29 16 NW 1024,7 10
17.11.2017 02:00:00 9,9 0,2 34 18 36 19 NNW 1024,1 10
17.11.2017 01:00:00 10,0 1,8 35 19 - - NNW 1023,6 10
17.11.2017 00:00:00 10,1 0,8 37 20 40 21 NNW 1023,3 10
16.11.2017 23:00:00 10,4 2,9 42 23 43 23 NW 1022,6 10
16.11.2017 22:00:00 10,7 4,6 44 24 - - NNW 1021,9 10
16.11.2017 21:00:00 11,0 4,8 48 26 47 25 NW 1020,8 10
16.11.2017 20:00:00 10,4 6,8 37 20 50 27 NW 1020,3 10
16.11.2017 19:00:00 10,1 7,3 37 20 - - WNW 1019,2 5
16.11.2017 18:00:00 10,6 9,9 29 16 32 18 SW 1019,5 7
16.11.2017 17:00:00 10,6 9,8 28 15 40 21 SSW 1019,1 4,5
16.11.2017 16:00:00 10,2 9,5 31 17 - - SSW 1019,3 4,3
16.11.2017 15:00:00 10,0 9,6 34 18 40 21 - 1019,2 1,4
16.11.2017 14:00:00 9,9 9,3 35 19 40 21 SSW 1019,5 2,1
16.11.2017 13:00:00 10,0 9,2 34 18 - - SSW 1019,7 2,8
16.11.2017 12:00:00 10,0 9,1 31 17 36 19 - 1020,3 4,4
16.11.2017 11:00:00 10,0 9,3 29 16 36 19 - 1020,9 4,6
16.11.2017 10:00:00 9,7 9,1 34 18 - - SSW 1020,7 4,9
16.11.2017 09:00:00 9,6 9,1 34 18 36 19 SSW 1020,8 2,8
16.11.2017 08:00:00 9,6 9,2 34 18 36 19 SSW 1020,8 1,4
16.11.2017 07:00:00 9,7 9,2 28 15 - - - 1020,5 2,9
16.11.2017 06:00:00 9,6 9,3 29 16 32 18 SSW 1020,7 2,4
16.11.2017 05:00:00 9,6 9,3 35 19 36 19 SSW 1021,1 2,6
16.11.2017 04:00:00 9,9 9,5 29 16 - - SSW 1021,7 4,4
16.11.2017 03:00:00 9,7 9,6 29 16 29 16 SSW 1022,1 1,9
16.11.2017 02:00:00 9,6 9,5 31 17 32 18 SSW 1022,3 0,7
16.11.2017 01:00:00 9,4 9,1 29 16 - - SSW 1022,7 0,9
16.11.2017 00:00:00 9,6 9,1 29 16 29 16 S 1023,1 8
15.11.2017 23:00:00 9,7 9,2 24 13 25 14 S 1023,4 4,5
15.11.2017 22:00:00 9,7 9,4 24 13 - - S 1023,9 2,2
15.11.2017 21:00:00 9,8 9,5 22 12 25 14 S 1024,0 2,8
15.11.2017 20:00:00 9,8 9,8 22 12 25 14 SSW 1024,1 1,6
15.11.2017 19:00:00 9,6 9,4 22 12 - - SSW 1024,2 0,9
15.11.2017 18:00:00 10,0 9,9 16 9 18 10 S 1024,1 0,8
15.11.2017 17:00:00 10,5 10,1 13 7 18 10 SSW 1024,1 0,9
15.11.2017 16:00:00 10,7 10,2 11 6 - - - 1024,2 1,8
15.11.2017 15:00:00 10,5 10,3 11 6 14 8 SSW 1024,1 3,4
15.11.2017 14:00:00 10,5 10,1 13 7 14 8 SW 1024,1 3,1
15.11.2017 13:00:00 10,5 10,3 13 7 - - WSW 1024,2 3,3
15.11.2017 12:00:00 10,3 10,0 13 7 14 8 W 1024,4 2,6
15.11.2017 11:00:00 10,2 9,9 13 7 18 10 WSW 1024,4 3,1
15.11.2017 10:00:00 10,0 9,6 16 9 - - WSW 1023,9 5
15.11.2017 09:00:00 9,9 9,6 24 13 25 14 SW 1023,5 6
15.11.2017 08:00:00 10,0 9,7 24 13 25 14 SW 1022,9 6
15.11.2017 07:00:00 10,1 9,6 24 13 - - WSW 1022,2 7
15.11.2017 06:00:00 10,1 9,3 24 13 29 16 WSW 1022,1 9
15.11.2017 05:00:00 10,0 9,5 28 15 29 16 WSW 1022,0 6
15.11.2017 04:00:00 9,9 9,7 26 14 - - WSW 1021,8 5
15.11.2017 03:00:00 9,7 9,5 26 14 25 14 WSW 1022,0 2,9
15.11.2017 02:00:00 10,0 9,6 26 14 25 14 WSW 1021,7 7
15.11.2017 01:00:00 9,8 9,6 26 14 - - WSW 1021,9 6
15.11.2017 00:00:00 9,7 9,3 21 11 22 12 SW 1021,9 2,5
14.11.2017 23:00:00 9,4 8,9 21 11 22 12 SW 1021,8 10
14.11.2017 22:00:00 9,3 8,7 18 10 - - SW 1021,7 9
14.11.2017 21:00:00 9,8 9,3 21 11 22 12 WSW 1021,6 9
14.11.2017 20:00:00 9,7 9,1 16 9 18 10 WSW 1021,4 6
14.11.2017 19:00:00 10,2 9,5 15 8 - - W 1021,2 9
14.11.2017 18:00:00 10,8 10,2 24 13 25 14 W 1020,7 10
14.11.2017 17:00:00 10,8 10,1 26 14 29 16 W 1020,3 10
14.11.2017 16:00:00 10,7 10,1 29 16 - - W 1019,7 10
14.11.2017 15:00:00 10,4 10,1 34 18 32 18 W 1019,4 9
14.11.2017 14:00:00 10,2 9,9 31 17 32 18 W 1019,2 7
14.11.2017 13:00:00 9,1 8,8 26 14 - - WSW 1019,1 9
14.11.2017 12:00:00 8,7 8,3 31 17 36 19 WSW 1019,0 7
14.11.2017 11:00:00 8,7 7,8 34 18 40 21 WSW 1019,0 10
14.11.2017 10:00:00 8,8 6,1 35 19 - - SW 1018,8 10
14.11.2017 09:00:00 8,2 4,7 31 17 32 18 SSW 1018,7 10
14.11.2017 08:00:00 8,3 3,7 35 19 36 19 SW 1018,7 10
14.11.2017 07:00:00 8,3 4,5 34 18 - - SW 1018,7 10
14.11.2017 06:00:00 8,0 5,3 28 15 32 18 SW 1019,3 10
14.11.2017 05:00:00 7,7 5,0 26 14 29 16 SW 1019,7 10
14.11.2017 04:00:00 7,6 5,3 26 14 - - SW 1020,0 10
14.11.2017 03:00:00 7,7 5,4 21 11 29 16 SW 1020,8 10
14.11.2017 02:00:00 8,7 4,0 16 9 29 16 WSW 1020,9 10
14.11.2017 01:00:00 9,3 2,6 21 11 - - WNW 1020,9 10

tt = Température de l'air
td = dewpoint
ff = Vitesse du vent
fx = gusts
dd = Direction du vent
ppp = reduced air pressure
vv = visibility

stations d'obs. à proximité